TimeCDT,TemperatureF,Dew PointF,Humidity,Sea Level PressureIn,VisibilityMPH,Wind Direction,Wind SpeedMPH,Gust SpeedMPH,PrecipitationIn,Events,Conditions,WindDirDegrees,DateUTC
12:53 AM,35.1,26.1,70,30.12,10.0,East,9.2,-,N/A,,Partly Cloudy,90,2013-03-27 05:53:00
1:53 AM,34.0,26.1,73,30.11,10.0,ESE,8.1,-,N/A,,Mostly Cloudy,110,2013-03-27 06:53:00
2:53 AM,33.1,26.1,75,30.10,10.0,ESE,6.9,-,N/A,,Overcast,110,2013-03-27 07:53:00
3:53 AM,33.1,26.1,75,30.07,10.0,East,8.1,-,N/A,,Overcast,100,2013-03-27 08:53:00
4:53 AM,33.1,26.1,75,30.08,10.0,Calm,Calm,-,N/A,,Overcast,0,2013-03-27 09:53:00
5:53 AM,33.1,26.1,75,30.07,10.0,Calm,Calm,-,N/A,,Overcast,0,2013-03-27 10:53:00
6:53 AM,28.0,24.1,85,30.10,9.0,North,3.5,-,N/A,,Scattered Clouds,10,2013-03-27 11:53:00
7:53 AM,30.0,25.0,82,30.12,8.0,NNE,4.6,-,N/A,,Overcast,30,2013-03-27 12:53:00
8:53 AM,34.0,27.0,75,30.14,9.0,NNE,8.1,-,N/A,,Clear,30,2013-03-27 13:53:00
9:53 AM,37.0,25.0,62,30.16,10.0,Calm,Calm,-,N/A,,Clear,0,2013-03-27 14:53:00
10:53 AM,37.9,25.0,60,30.16,10.0,Calm,Calm,-,N/A,,Clear,0,2013-03-27 15:53:00
11:53 AM,43.0,27.0,53,30.16,10.0,WSW,3.5,-,N/A,,Clear,240,2013-03-27 16:53:00
12:53 PM,48.0,28.0,46,30.15,10.0,Variable,3.5,-,N/A,,Clear,0,2013-03-27 17:53:00
1:53 PM,51.1,27.0,39,30.13,10.0,East,4.6,-,N/A,,Clear,80,2013-03-27 18:53:00
2:53 PM,54.0,27.0,35,30.12,10.0,East,5.8,-,N/A,,Clear,90,2013-03-27 19:53:00
3:53 PM,55.9,28.0,34,30.10,10.0,Variable,3.5,-,N/A,,Clear,0,2013-03-27 20:53:00
4:53 PM,55.9,27.0,33,30.10,10.0,West,4.6,-,N/A,,Clear,260,2013-03-27 21:53:00
5:53 PM,57.9,27.0,31,30.10,10.0,Calm,Calm,-,N/A,,Clear,0,2013-03-27 22:53:00
6:53 PM,55.9,28.0,34,30.12,10.0,Variable,4.6,-,N/A,,Clear,0,2013-03-27 23:53:00
7:53 PM,50.0,30.0,46,30.14,10.0,ESE,8.1,-,N/A,,Clear,120,2013-03-28 00:53:00
8:53 PM,45.0,30.0,56,30.15,10.0,SE,8.1,-,N/A,,Clear,130,2013-03-28 01:53:00
9:53 PM,42.1,30.0,62,30.17,10.0,SE,6.9,-,N/A,,Clear,140,2013-03-28 02:53:00
10:53 PM,42.1,28.9,60,30.19,10.0,SE,8.1,-,N/A,,Clear,140,2013-03-28 03:53:00
11:53 PM,41.0,28.9,62,30.19,10.0,ESE,3.5,-,N/A,,Clear,120,2013-03-28 04:53:00